When you browse on this site, cookies collect data to enhance your experience and personalize the content and advertising you see.
Visit our Privacy Policy to learn more. By continuing to use the site, you agree to this use of cookies and data.

Meteo pe oră la Batina

Astăzi, 10 Iulie, Vineri

Timp Temperatura Precipitaţii Vânt Presiune Umiditate
00:00 +24°C° 0 mm 1 m/s 672 mmHg 34%
01:00 +24°C° 0 mm 1 m/s 671 mmHg 35%
02:00 +23°C° 0 mm 1 m/s 671 mmHg 36%
03:00 +23°C° 0 mm 1 m/s 671 mmHg 37%
04:00 +24°C° 0 mm 1 m/s 671 mmHg 33%
05:00 +26°C° 0 mm 1 m/s 672 mmHg 29%
06:00 +28°C° 0 mm 1 m/s 673 mmHg 25%
07:00 +29°C° 0 mm 2 m/s 673 mmHg 23%
08:00 +31°C° 0 mm 3 m/s 673 mmHg 21%
09:00 +33°C° 0 mm 4 m/s 674 mmHg 18%
10:00 +34°C° 0 mm 4 m/s 674 mmHg 17%
11:00 +35°C° 0 mm 4 m/s 674 mmHg 16%
12:00 +36°C° 0 mm 5 m/s 674 mmHg 15%
13:00 +36°C° 0 mm 5 m/s 674 mmHg 15%
14:00 +36°C° 0 mm 4 m/s 673 mmHg 15%
15:00 +36°C° 0 mm 4 m/s 673 mmHg 15%
16:00 +35°C° 0 mm 4 m/s 672 mmHg 18%
17:00 +33°C° 0 mm 5 m/s 672 mmHg 21%
18:00 +32°C° 0 mm 5 m/s 672 mmHg 25%
19:00 +29°C° 0 mm 4 m/s 672 mmHg 27%
20:00 +28°C° 0 mm 3 m/s 672 mmHg 30%
21:00 +27°C° 0 mm 2 m/s 673 mmHg 32%
22:00 +27°C° 0 mm 2 m/s 672 mmHg 33%
23:00 +26°C° 0 mm 2 m/s 672 mmHg 34%

Mâine, 11 Iulie, Sâmbătă

Timp Temperatura Precipitaţii Vânt Presiune Umiditate
00:00 +26°C° 0 mm 2 m/s 672 mmHg 35%
01:00 +25°C° 0 mm 2 m/s 672 mmHg 36%
02:00 +25°C° 0 mm 2 m/s 671 mmHg 36%
03:00 +24°C° 0 mm 1 m/s 671 mmHg 37%
04:00 +25°C° 0 mm 2 m/s 671 mmHg 35%
05:00 +26°C° 0 mm 2 m/s 672 mmHg 33%
06:00 +27°C° 0 mm 2 m/s 672 mmHg 32%
07:00 +29°C° 0 mm 3 m/s 673 mmHg 29%
08:00 +31°C° 0 mm 3 m/s 674 mmHg 26%
09:00 +33°C° 0 mm 4 m/s 674 mmHg 23%
10:00 +34°C° 0 mm 5 m/s 674 mmHg 21%
11:00 +35°C° 0 mm 6 m/s 674 mmHg 19%
12:00 +36°C° 0 mm 7 m/s 674 mmHg 18%
13:00 +36°C° 0 mm 6 m/s 674 mmHg 18%
14:00 +36°C° 0 mm 6 m/s 673 mmHg 18%
15:00 +36°C° 0 mm 5 m/s 673 mmHg 18%
16:00 +36°C° 0 mm 4 m/s 673 mmHg 18%
17:00 +35°C° 0 mm 3 m/s 673 mmHg 18%
18:00 +35°C° 0 mm 3 m/s 673 mmHg 19%
19:00 +32°C° 0 mm 2 m/s 672 mmHg 24%
20:00 +30°C° 0 mm 2 m/s 672 mmHg 28%
21:00 +28°C° 0 mm 1 m/s 672 mmHg 33%
22:00 +27°C° 0 mm 1 m/s 672 mmHg 35%
23:00 +26°C° 0 mm 1 m/s 672 mmHg 37%

Poimâine, 12 Iulie, Duminică

Timp Temperatura Precipitaţii Vânt Presiune Umiditate
00:00 +25°C° 0 mm 1 m/s 672 mmHg 38%
01:00 +25°C° 0 mm 1 m/s 671 mmHg 39%
02:00 +25°C° 0 mm 1 m/s 671 mmHg 39%
03:00 +24°C° 0 mm 1 m/s 671 mmHg 39%
04:00 +25°C° 0 mm 1 m/s 672 mmHg 38%
05:00 +26°C° 0 mm 1 m/s 672 mmHg 36%
06:00 +27°C° 0 mm 1 m/s 673 mmHg 34%
07:00 +29°C° 0 mm 3 m/s 673 mmHg 30%
08:00 +32°C° 0 mm 4 m/s 674 mmHg 26%
09:00 +33°C° 0 mm 5 m/s 674 mmHg 22%
10:00 +34°C° 0 mm 5 m/s 674 mmHg 20%
11:00 +35°C° 0 mm 5 m/s 675 mmHg 18%
12:00 +37°C° 0 mm 5 m/s 675 mmHg 17%
13:00 +38°C° 0 mm 6 m/s 674 mmHg 16%
14:00 +38°C° 0 mm 6 m/s 674 mmHg 15%
15:00 +39°C° 0 mm 6 m/s 674 mmHg 14%
16:00 +36°C° 0 mm 6 m/s 674 mmHg 20%
17:00 +34°C° 0 mm 7 m/s 673 mmHg 25%
18:00 +32°C° 0 mm 7 m/s 673 mmHg 31%
19:00 +29°C° 0 mm 5 m/s 673 mmHg 37%
20:00 +28°C° 0 mm 4 m/s 673 mmHg 42%
21:00 +26°C° 0 mm 3 m/s 673 mmHg 48%
22:00 +25°C° 0 mm 3 m/s 673 mmHg 49%
23:00 +25°C° 0 mm 2 m/s 673 mmHg 50%

13 Iulie, Luni

Timp Temperatura Precipitaţii Vânt Presiune Umiditate
00:00 +24°C° 0 mm 2 m/s 672 mmHg 51%
01:00 +24°C° 0 mm 2 m/s 672 mmHg 52%
02:00 +23°C° 0 mm 1 m/s 671 mmHg 52%
03:00 +23°C° 0 mm 1 m/s 671 mmHg 53%
04:00 +24°C° 0 mm 1 m/s 672 mmHg 48%
05:00 +25°C° 0 mm 1 m/s 672 mmHg 42%
06:00 +27°C° 0 mm 1 m/s 673 mmHg 37%
07:00 +28°C° 0 mm 2 m/s 673 mmHg 33%
08:00 +30°C° 0 mm 2 m/s 674 mmHg 28%
09:00 +33°C° 0 mm 3 m/s 674 mmHg 24%
10:00 +34°C° 0 mm 3 m/s 674 mmHg 22%
11:00 +36°C° 0 mm 4 m/s 674 mmHg 20%
12:00 +37°C° 0 mm 5 m/s 674 mmHg 18%
13:00 +36°C° 0 mm 5 m/s 674 mmHg 18%
14:00 +36°C° 0 mm 5 m/s 673 mmHg 18%
15:00 +36°C° 0 mm 5 m/s 672 mmHg 18%
16:00 +33°C° 0.9 mm 6 m/s 672 mmHg 26%
17:00 +29°C° 0.9 mm 7 m/s 672 mmHg 33%
18:00 +27°C° 0.9 mm 8 m/s 671 mmHg 40%
19:00 +26°C° 0.6 mm 6 m/s 671 mmHg 40%
20:00 +26°C° 0.6 mm 4 m/s 671 mmHg 40%
21:00 +25°C° 0.6 mm 3 m/s 671 mmHg 40%
22:00 +25°C° 0 mm 2 m/s 671 mmHg 39%
23:00 +25°C° 0 mm 1 m/s 671 mmHg 39%

14 Iulie, Marţi

Timp Temperatura Precipitaţii Vânt Presiune Umiditate
00:00 +25°C° 0 mm 1 m/s 671 mmHg 38%
01:00 +24°C° 0 mm 1 m/s 670 mmHg 41%
02:00 +23°C° 0 mm 1 m/s 670 mmHg 44%
03:00 +20°C° 0 mm 0 m/s 669 mmHg 47%
04:00 +23°C° 0 mm 1 m/s 670 mmHg 44%
05:00 +24°C° 0 mm 1 m/s 671 mmHg 40%
06:00 +25°C° 0 mm 1 m/s 671 mmHg 37%
07:00 +27°C° 0 mm 1 m/s 671 mmHg 34%
08:00 +28°C° 0 mm 1 m/s 672 mmHg 31%
09:00 +30°C° 0 mm 1 m/s 672 mmHg 28%
10:00 +31°C° 0 mm 2 m/s 672 mmHg 26%
11:00 +33°C° 0 mm 3 m/s 672 mmHg 23%
12:00 +34°C° 0 mm 4 m/s 672 mmHg 21%
13:00 +34°C° 0 mm 4 m/s 672 mmHg 21%
14:00 +34°C° 0 mm 4 m/s 672 mmHg 21%
15:00 +34°C° 0 mm 4 m/s 671 mmHg 20%
16:00 +33°C° 0 mm 4 m/s 671 mmHg 27%
17:00 +30°C° 0 mm 5 m/s 671 mmHg 33%
18:00 +29°C° 0 mm 6 m/s 670 mmHg 40%
19:00 +27°C° 0 mm 5 m/s 670 mmHg 44%
20:00 +26°C° 0 mm 5 m/s 671 mmHg 49%
21:00 +25°C° 0 mm 4 m/s 671 mmHg 53%
22:00 +24°C° 0 mm 3 m/s 671 mmHg 55%
23:00 +24°C° 0 mm 3 m/s 671 mmHg 57%

15 Iulie, Miercuri

Timp Temperatura Precipitaţii Vânt Presiune Umiditate
00:00 +23°C° 0 mm 2 m/s 671 mmHg 59%
01:00 +23°C° 0 mm 2 m/s 670 mmHg 59%
02:00 +22°C° 0 mm 1 m/s 670 mmHg 60%
03:00 +22°C° 0 mm 1 m/s 670 mmHg 61%
04:00 +23°C° 0 mm 1 m/s 671 mmHg 57%
05:00 +22°C° 0 mm 0 m/s 671 mmHg 53%
06:00 +22°C° 0 mm 0 m/s 672 mmHg 49%
07:00 +26°C° 0 mm 1 m/s 672 mmHg 44%
08:00 +28°C° 0 mm 1 m/s 673 mmHg 38%
09:00 +29°C° 0 mm 1 m/s 673 mmHg 33%
10:00 +31°C° 0 mm 2 m/s 673 mmHg 29%
11:00 +33°C° 0 mm 3 m/s 673 mmHg 25%
12:00 +34°C° 0 mm 3 m/s 674 mmHg 22%
13:00 +35°C° 0 mm 4 m/s 674 mmHg 20%
14:00 +35°C° 0 mm 4 m/s 673 mmHg 18%
15:00 +36°C° 0 mm 4 m/s 673 mmHg 17%
16:00 +35°C° 0 mm 4 m/s 673 mmHg 19%
17:00 +35°C° 0 mm 4 m/s 673 mmHg 21%
18:00 +34°C° 0 mm 5 m/s 673 mmHg 23%
19:00 +32°C° 0 mm 4 m/s 673 mmHg 32%
20:00 +29°C° 0 mm 4 m/s 673 mmHg 40%
21:00 +27°C° 0 mm 3 m/s 673 mmHg 49%
22:00 +26°C° 0 mm 3 m/s 673 mmHg 52%
23:00 +26°C° 0 mm 3 m/s 673 mmHg 54%
Arată mai mult